Location: Brantley
(31.5822°N, 86.2569°W)
Time: 09:23:41
(UTC+00:00)

Tiros 1 - All Passes

Search period start: 19 February 2026 00:00
Search period end: 01 March 2026 00:00
Orbit: 618 x 649 km, 48.4° (Epoch: 18 February)

Date Brightness Start Highest point End Pass type
(mag) Time Alt. Az. Time Alt. Az. Time Alt. Az.
19 Feb - 11:50:02 10° S 11:53:58 27° SE 11:57:52 10° ENE visible
19 Feb - 13:31:18 10° WSW 13:35:42 43° NW 13:40:05 10° NE daylight
19 Feb - 15:16:25 10° NW 15:18:31 13° NNW 15:20:38 10° N daylight
19 Feb - 18:42:09 10° NNW 18:45:32 20° NNE 18:48:55 10° ENE daylight
19 Feb - 20:23:16 10° NW 20:27:50 83° SW 20:32:23 10° SE daylight
20 Feb - 12:10:50 10° SW 12:15:26 67° SE 12:20:01 10° NE daylight
20 Feb - 13:53:56 10° W 13:57:38 23° NNW 14:01:18 10° NNE daylight
20 Feb - 17:22:54 10° N 17:24:34 12° NNE 17:26:14 10° NE daylight
20 Feb - 19:03:19 10° NW 19:07:31 36° NNE 19:11:41 10° E daylight
20 Feb - 20:45:15 10° WNW 20:49:20 33° SW 20:53:25 10° SSE daylight
21 Feb - 10:51:59 10° S 10:55:29 21° SE 10:58:58 10° E visible
21 Feb - 12:32:33 10° WSW 12:37:05 54° NW 12:41:37 10° NE daylight
21 Feb - 14:17:12 10° NW 14:19:47 15° NNW 14:22:20 10° NNE daylight
21 Feb - 17:43:46 10° NNW 17:46:49 17° NNE 17:49:52 10° ENE daylight
21 Feb - 19:24:43 10° NW 19:29:17 77° NE 19:33:49 10° SE daylight
21 Feb - 21:08:27 10° W 21:10:41 14° SW 21:12:56 10° SSW daylight
22 Feb - 11:12:24 10° SSW 11:16:55 51° SE 11:21:23 10° ENE visible
22 Feb - 12:55:00 10° W 12:58:57 27° NNW 13:02:54 10° NNE daylight
22 Feb - 14:41:14 10° NNW 14:42:06 10° N 14:42:58 10° N daylight
22 Feb - 16:24:40 10° N 16:25:47 11° NNE 16:26:55 10° NNE daylight
22 Feb - 18:04:52 10° NNW 18:08:52 29° NNE 18:12:52 10° E daylight
22 Feb - 19:46:31 10° WNW 19:50:50 44° SW 19:55:09 10° SSE daylight
23 Feb - 09:54:07 10° SSE 09:57:01 16° SE 09:59:53 10° E visible
23 Feb - 11:33:52 10° WSW 11:38:30 68° NW 11:43:06 10° NE visible
23 Feb - 13:18:04 10° WNW 13:21:02 17° NNW 13:23:59 10° NNE daylight
23 Feb - 16:45:24 10° NNW 16:48:06 15° NNE 16:50:47 10° ENE daylight
23 Feb - 18:26:11 10° NW 18:30:42 60° NE 18:35:11 10° ESE daylight
23 Feb - 20:09:09 10° W 20:12:13 18° SW 20:15:18 10° S daylight
24 Feb - 10:14:02 10° SSW 10:18:23 39° SE 10:22:42 10° ENE visible
24 Feb - 11:56:05 10° W 12:00:17 33° NNW 12:04:28 10° NNE daylight
24 Feb - 13:41:46 10° NNW 13:43:18 11° NNW 13:44:50 10° N daylight
24 Feb - 15:26:47 10° N 15:26:59 10° N 15:27:11 10° N daylight
24 Feb - 17:06:26 10° NNW 17:10:12 25° NNE 17:13:57 10° E daylight
24 Feb - 18:47:51 10° WNW 18:52:19 58° SW 18:56:46 10° SE daylight
25 Feb - 08:56:40 10° SSE 08:58:32 12° SE 09:00:23 10° ESE visible
25 Feb - 10:35:14 10° SW 10:39:54 87° NW 10:44:34 10° NE visible
25 Feb - 12:18:58 10° WNW 12:22:18 19° NNW 12:25:37 10° NNE daylight
25 Feb - 15:47:01 10° NNW 15:49:20 14° NNE 15:51:39 10° NE daylight
25 Feb - 17:27:41 10° NW 17:32:06 47° NE 17:36:29 10° ESE daylight
25 Feb - 19:10:07 10° WNW 19:13:44 24° SW 19:17:21 10° S daylight
26 Feb - 09:15:47 10° SSW 09:19:51 30° SE 09:23:55 10° ENE visible
26 Feb - 10:57:14 10° WSW 11:01:38 40° NW 11:06:00 10° NE visible
26 Feb - 12:42:27 10° NW 12:44:31 13° NNW 12:46:33 10° N daylight
26 Feb - 16:08:00 10° NNW 16:11:31 21° NNE 16:14:59 10° ENE daylight
26 Feb - 17:49:13 10° NW 17:53:46 76° SW 17:58:17 10° SE daylight
27 Feb - 09:36:40 10° SW 09:41:20 73° SE 09:45:59 10° NE visible
27 Feb - 11:19:55 10° WNW 11:23:34 22° NNW 11:27:13 10° NNE visible
27 Feb - 14:48:40 10° N 14:50:33 12° NNE 14:52:26 10° NE daylight
27 Feb - 16:29:11 10° NW 16:33:28 38° NNE 16:37:42 10° ESE daylight
27 Feb - 18:11:15 10° WNW 18:15:14 31° SW 18:19:14 10° SSE daylight
28 Feb - 08:17:38 10° S 08:21:20 23° SE 08:25:02 10° ENE visible
28 Feb - 09:58:26 10° WSW 10:02:59 50° NW 10:07:31 10° NE visible
28 Feb - 11:43:13 10° NW 11:45:43 14° NNW 11:48:14 10° NNE visible
28 Feb - 15:09:35 10° NNW 15:12:47 18° NNE 15:15:58 10° ENE daylight
28 Feb - 16:50:37 10° NW 16:55:12 83° NE 16:59:45 10° SE daylight
28 Feb - 18:34:42 10° WSW 18:36:33 12° SW 18:38:25 10° SSW daylight
